Home   Weather   Ballarat   Past weeks

Flag for Australia Past Weather in Ballarat, Victoria, Australia — Yesterday and Last 2 Weeks

Now
43 °F

Quite cool.


Feels Like: 37 °F
Forecast: 32 / 48 °F
Wind: 10 mph from West

Location: Sheoaks Aws

Current Time: Aug 18, 2017 at 10:49:45 pm

Latest Report: Aug 18, 2017 at 9:00 pm


Visibility: N/A

Pressure: 30.11 "Hg

Humidity: 86%

Dew Point: 39 °F

Location of BallaratLocation

Past Weather in Ballarat — Graph

°F

Ballarat Temperature Yesterday

Maximum temperature yesterday: 54 °F (at 2:00 pm)
Minimum temperature yesterday: 42 °F (at 11:00 pm)
Average temperature yesterday: 48 °F

High & Low Weather Summary for the Past Weeks

 TemperatureHumidityPressure
High65 °F (Aug 14, 2:00 pm)99% (Aug 4, 2:00 am)30.19 "Hg (Aug 4, 2:00 am)
Low41 °F (Aug 18, 8:00 am)32% (Aug 10, 12:00 pm)29.32 "Hg (Aug 16, 3:00 am)
Average51 °F73%29.80 "Hg
* Reported Aug 3 9:00 pm — Aug 18 9:00 pm, Ballarat. Weather by CustomWeather, © 2017

Note: Actual official high and low records may vary slightly from our data, if they occured in-between our weather recording intervals... More about our weather records

Advertising

Ballarat Weather History for the Previous 24 Hours

Scroll right to see more
 ConditionsComfort  
Time TempWeatherWind HumidityBarometerVisibility
9:00 pm
Fri, Aug 18
43 °FQuite cool.10 mph86%30.11 "HgN/A
8:00 pm42 °FQuite cool.8 mph86%30.09 "HgN/A
6:00 pm44 °FQuite cool.10 mph85%30.02 "HgN/A
5:00 pm45 °FQuite cool.12 mph82%29.99 "HgN/A
3:00 pm46 °FCool.9 mph86%29.94 "HgN/A
2:00 pm45 °FCool.12 mph82%29.90 "HgN/A
12:00 pm48 °FCool.17 mph79%29.87 "HgN/A
11:00 am46 °FCool.16 mph82%29.85 "HgN/A
9:00 am43 °FQuite cool.17 mph83%29.80 "HgN/A
8:00 am41 °FQuite cool.15 mph86%29.80 "HgN/A
6:00 am43 °FQuite cool.20 mph84%29.71 "HgN/A
5:00 am43 °FQuite cool.21 mph80%29.68 "HgN/A
3:00 am44 °FQuite cool.17 mph74%29.65 "HgN/A
2:00 am44 °FQuite cool.15 mph75%29.65 "HgN/A
12:00 am43 °FQuite cool.13 mph80%29.65 "HgN/A
11:00 pm
Thu, Aug 17
42 °FQuite cool.12 mph83%29.64 "HgN/A
Weather by CustomWeather, © 2017

See weather overviewHow to use our weather pages